| time (UTC) | temp F | wind direction | speed knots | gust knots | rain 1hr in | rain 24hr in | rain mn in | humidity % | barometer mb |
| 20260903162336 | 82 | 193 | 0.0 | 3.5 | 0.00 | 0.02 | 0.02 | 86 | 1013.3 |
| 20260903161335 | 82 | 109 | 1.7 | 3.5 | 0.00 | 0.05 | 0.02 | 88 | 1013.3 |
| 20260903160335 | 82 | 115 | 0.9 | 1.7 | 0.00 | 0.05 | 0.02 | 90 | 1013.3 |
| 20260903155306 | 81 | 120 | 0.0 | 1.7 | 0.00 | 0.05 | 0.02 | 91 | 1013.3 |
| 20260903154302 | 81 | 79 | 0.9 | 0.9 | 0.00 | 0.05 | 0.02 | 92 | 1013.0 |
| 20260903153301 | 80 | 37 | 0.9 | 2.6 | 0.00 | 0.05 | 0.02 | 94 | 1013.0 |
| 20260903152300 | 80 | 70 | 0.9 | 3.5 | 0.00 | 0.05 | 0.02 | 94 | 1013.0 |
| 20260903151259 | 79 | 132 | 1.7 | 2.6 | 0.01 | 0.05 | 0.02 | 95 | 1013.0 |
| 20260903150258 | 79 | 151 | 0.9 | 2.6 | 0.01 | 0.05 | 0.02 | 95 | 1013.3 |
| 20260903145258 | 78 | 8 | 1.7 | 3.5 | 0.02 | 0.06 | 0.02 | 96 | 1013.3 |
| 20260903144257 | 78 | 84 | 0.9 | 2.6 | 0.02 | 0.06 | 0.02 | 97 | 1013.3 |
| 20260903143256 | 79 | 163 | 0.9 | 0.9 | 0.02 | 0.06 | 0.02 | 97 | 1013.0 |
| 20260903142255 | 79 | 127 | 0.0 | 3.5 | 0.02 | 0.06 | 0.02 | 96 | 1013.0 |
| 20260903141255 | 79 | 101 | 0.9 | 2.6 | 0.01 | 0.05 | 0.01 | 96 | 1013.3 |
| 20260903140253 | 80 | 128 | 0.9 | 2.6 | 0.01 | 0.05 | 0.01 | 95 | 1013.3 |
| 20260903135252 | 80 | 126 | 0.9 | 1.7 | 0.00 | 0.04 | 0.00 | 94 | 1013.0 |
| 20260903134252 | 81 | 176 | 0.9 | 0.9 | 0.00 | 0.04 | 0.00 | 95 | 1013.0 |
| 20260903133251 | 80 | 160 | 0.0 | 0.9 | 0.00 | 0.04 | 0.00 | 95 | 1013.0 |
| 20260903132250 | 79 | 159 | 0.0 | 0.9 | 0.00 | 0.04 | 0.00 | 97 | 1013.0 |
| 20260903131249 | 78 | 159 | 0.0 | 0.9 | 0.00 | 0.04 | 0.00 | 97 | 1013.0 |
| 20260903130248 | 78 | 170 | 0.0 | 4.3 | 0.00 | 0.04 | 0.00 | 96 | 1013.0 |
| 20260903125247 | 79 | 154 | 1.7 | 4.3 | 0.00 | 0.04 | 0.00 | 96 | 1013.0 |
| 20260903124247 | 80 | 178 | 1.7 | 3.5 | 0.00 | 0.04 | 0.00 | 97 | 1013.0 |
| 20260903123246 | 79 | 153 | 0.9 | 1.7 | 0.00 | 0.04 | 0.00 | 98 | 1013.0 |
| 20260903122245 | 79 | 169 | 0.0 | 0.9 | 0.00 | 0.04 | 0.00 | 99 | 1012.7 |
| 20260903121244 | 78 | 167 | 0.0 | 0.9 | 0.00 | 0.04 | 0.00 | 99 | 1012.7 |
| 20260903120244 | 78 | 44 | 0.0 | 0.0 | 0.00 | 0.04 | 0.00 | 99 | 1012.7 |
| 20260903115243 | 77 | 44 | 0.0 | 0.0 | 0.00 | 0.04 | 0.00 | 99 | 1012.3 |
| 20260903114242 | 76 | 44 | 0.0 | 0.0 | 0.00 | 0.04 | 0.00 | 99 | 1012.3 |
| 20260903113242 | 76 | 44 | 0.0 | 0.0 | 0.00 | 0.04 | 0.00 | 99 | 1012.3 |
| 20260903112210 | 75 | 44 | 0.0 | 0.0 | 0.00 | 0.04 | 0.00 | 99 | 1012.3 |
| 20260903111209 | 75 | 44 | 0.0 | 0.0 | 0.00 | 0.04 | 0.00 | 99 | 1012.0 |
| 20260903110137 | 75 | 44 | 0.0 | 0.0 | 0.00 | 0.04 | 0.00 | 99 | 1011.6 |
| 20260903105136 | 76 | 44 | 0.0 | 0.0 | 0.00 | 0.04 | 0.00 | 99 | 1011.6 |
| 20260903104136 | 76 | 44 | 0.0 | 0.0 | 0.00 | 0.04 | 0.00 | 99 | 1011.6 |
| 20260903103135 | 76 | 44 | 0.0 | 0.0 | 0.00 | 0.04 | 0.00 | 98 | 1011.6 |
| 20260903102134 | 76 | 44 | 0.0 | 0.0 | 0.00 | 0.04 | 0.00 | 98 | 1011.3 |
| 20260903101102 | 76 | 44 | 0.0 | 0.0 | 0.00 | 0.04 | 0.00 | 98 | 1011.3 |
| 20260903095101 | 76 | 44 | 0.0 | 0.0 | 0.00 | 0.04 | 0.00 | 98 | 1011.0 |
| 20260903094029 | 76 | 44 | 0.0 | 0.0 | 0.00 | 0.04 | 0.00 | 98 | 1011.0 |
| 20260903093028 | 76 | 44 | 0.0 | 0.0 | 0.00 | 0.04 | 0.00 | 98 | 1011.0 |
| 20260903092027 | 76 | 44 | 0.0 | 0.0 | 0.00 | 0.04 | 0.00 | 98 | 1011.0 |
| 20260903091026 | 76 | 44 | 0.0 | 0.0 | 0.00 | 0.04 | 0.00 | 98 | 1011.3 |
| 20260903090025 | 77 | 44 | 0.0 | 0.0 | 0.00 | 0.04 | 0.00 | 98 | 1011.3 |
| 20260903085024 | 77 | 44 | 0.0 | 0.0 | 0.00 | 0.04 | 0.00 | 98 | 1011.3 |
| 20260903084023 | 77 | 44 | 0.0 | 0.0 | 0.00 | 0.04 | 0.00 | 98 | 1011.0 |
| 20260903083023 | 77 | 44 | 0.0 | 0.0 | 0.00 | 0.04 | 0.00 | 98 | 1011.0 |
| 20260903081951 | 77 | 44 | 0.0 | 0.0 | 0.00 | 0.04 | 0.00 | 98 | 1011.0 |
| 20260903080950 | 77 | 44 | 0.0 | 0.9 | 0.00 | 0.04 | 0.00 | 98 | 1011.0 |
| 20260903075949 | 77 | 44 | 0.0 | 0.9 | 0.00 | 0.04 | 0.00 | 97 | 1011.0 |
| 20260903074948 | 77 | 44 | 0.9 | 0.9 | 0.00 | 0.04 | 0.00 | 97 | 1011.0 |
| 20260903073947 | 77 | 44 | 0.0 | 0.0 | 0.00 | 0.04 | 0.00 | 97 | 1011.0 |
| 20260903072946 | 77 | 40 | 0.0 | 0.9 | 0.00 | 0.04 | 0.00 | 97 | 1011.3 |
| 20260903071844 | 77 | 36 | 0.9 | 0.9 | 0.00 | 0.04 | 0.00 | 97 | 1011.3 |
| 20260903070843 | 77 | 36 | 0.0 | 0.9 | 0.00 | 0.04 | 0.00 | 97 | 1011.3 |
| 20260903065842 | 77 | 36 | 0.9 | 0.9 | 0.00 | 0.04 | 0.00 | 97 | 1011.7 |
| 20260903064841 | 77 | 36 | 0.0 | 0.0 | 0.00 | 0.04 | 0.00 | 97 | 1011.7 |
| 20260903063840 | 77 | 36 | 0.0 | 0.0 | 0.00 | 0.04 | 0.00 | 97 | 1011.7 |
| 20260903062840 | 77 | 36 | 0.0 | 0.0 | 0.00 | 0.04 | 0.00 | 97 | 1012.0 |
| 20260903061839 | 77 | 36 | 0.0 | 0.9 | 0.00 | 0.04 | 0.00 | 97 | 1012.0 |
| 20260903060838 | 78 | 36 | 0.0 | 0.9 | 0.00 | 0.04 | 0.00 | 97 | 1012.0 |
| 20260903055837 | 78 | 115 | 0.0 | 0.0 | 0.00 | 0.04 | 0.00 | 97 | 1012.0 |
| 20260903054836 | 78 | 116 | 0.0 | 0.9 | 0.00 | 0.04 | 0.00 | 96 | 1012.0 |
| 20260903053836 | 78 | 115 | 0.9 | 0.9 | 0.00 | 0.04 | 0.00 | 96 | 1012.3 |
| 20260903052835 | 78 | 115 | 0.0 | 0.9 | 0.00 | 0.04 | 0.00 | 96 | 1012.4 |
| 20260903051834 | 78 | 115 | 0.0 | 0.9 | 0.00 | 0.04 | 0.00 | 96 | 1012.3 |
| 20260903050833 | 78 | 115 | 0.9 | 0.9 | 0.00 | 0.04 | 0.00 | 96 | 1012.7 |
| 20260903045832 | 78 | 116 | 0.9 | 0.9 | 0.00 | 0.04 | 0.00 | 96 | 1012.7 |
| 20260903044831 | 78 | 116 | 0.0 | 0.9 | 0.00 | 0.04 | 0.00 | 96 | 1012.7 |
| 20260903043830 | 78 | 115 | 0.0 | 0.9 | 0.00 | 0.04 | 0.00 | 96 | 1012.7 |
| 20260903042758 | 78 | 115 | 0.0 | 0.0 | 0.00 | 0.04 | 0.00 | 96 | 1012.7 |
| 20260903041726 | 78 | 115 | 0.0 | 0.0 | 0.00 | 0.04 | 0.00 | 95 | 1012.7 |
| 20260903040725 | 79 | 116 | 0.0 | 0.0 | 0.00 | 0.04 | 0.00 | 95 | 1013.0 |
| 20260903035724 | 79 | 116 | 0.0 | 0.9 | 0.00 | 0.04 | 0.04 | 95 | 1013.0 |
| 20260903034723 | 79 | 115 | 0.0 | 0.9 | 0.00 | 0.04 | 0.04 | 95 | 1013.0 |
| 20260903033722 | 79 | 101 | 0.0 | 0.9 | 0.00 | 0.04 | 0.04 | 94 | 1013.0 |
| 20260903032650 | 80 | 121 | 0.9 | 1.7 | 0.00 | 0.04 | 0.04 | 94 | 1012.7 |
| 20260903031650 | 80 | 82 | 0.0 | 2.6 | 0.00 | 0.04 | 0.04 | 94 | 1012.7 |
| 20260903030649 | 80 | 107 | 0.9 | 1.7 | 0.00 | 0.04 | 0.04 | 94 | 1012.7 |
| 20260903025648 | 80 | 91 | 0.9 | 4.3 | 0.00 | 0.04 | 0.04 | 94 | 1013.0 |
| 20260903024647 | 80 | 105 | 0.9 | 5.2 | 0.00 | 0.04 | 0.04 | 95 | 1013.0 |
| 20260903023646 | 80 | 121 | 0.9 | 1.7 | 0.00 | 0.04 | 0.04 | 95 | 1013.0 |
| 20260903022645 | 80 | 129 | 0.9 | 0.9 | 0.00 | 0.04 | 0.04 | 95 | 1013.0 |
| 20260903021644 | 80 | 111 | 0.9 | 0.9 | 0.00 | 0.04 | 0.04 | 95 | 1013.0 |
| 20260903020612 | 80 | 51 | 0.0 | 0.9 | 0.00 | 0.04 | 0.04 | 95 | 1013.0 |
| 20260903015540 | 80 | 67 | 0.0 | 1.7 | 0.00 | 0.04 | 0.04 | 95 | 1013.0 |
| 20260903014539 | 80 | 70 | 0.9 | 2.6 | 0.00 | 0.04 | 0.04 | 95 | 1012.7 |
| 20260903013539 | 80 | 79 | 0.9 | 2.6 | 0.00 | 0.04 | 0.04 | 94 | 1012.7 |
| 20260903012538 | 80 | 83 | 0.9 | 2.6 | 0.00 | 0.04 | 0.04 | 94 | 1012.7 |
| 20260903011537 | 81 | 22 | 0.9 | 1.7 | 0.00 | 0.04 | 0.04 | 93 | 1012.7 |
| 20260903010536 | 81 | 77 | 0.9 | 1.7 | 0.00 | 0.04 | 0.04 | 93 | 1012.7 |
| 20260903005535 | 81 | 51 | 0.9 | 1.7 | 0.00 | 0.04 | 0.04 | 92 | 1012.7 |
| 20260903004503 | 81 | 61 | 0.9 | 0.9 | 0.00 | 0.04 | 0.04 | 92 | 1012.7 |
| 20260903003503 | 81 | 72 | 0.0 | 0.9 | 0.00 | 0.04 | 0.04 | 92 | 1012.7 |
| 20260903002502 | 81 | 36 | 0.0 | 1.7 | 0.00 | 0.04 | 0.04 | 91 | 1012.7 |
| 20260903001430 | 81 | 25 | 0.0 | 1.7 | 0.00 | 0.04 | 0.04 | 91 | 1012.3 |
| 20260903000429 | 82 | 60 | 0.9 | 2.6 | 0.00 | 0.04 | 0.04 | 90 | 1012.3 |
| 20260902235357 | 82 | 23 | 1.7 | 2.6 | 0.00 | 0.04 | 0.04 | 90 | 1012.3 |
| 20260902234356 | 82 | 82 | 0.9 | 3.5 | 0.00 | 0.04 | 0.04 | 89 | 1012.3 |
| 20260902233355 | 82 | 62 | 0.9 | 3.5 | 0.00 | 0.04 | 0.04 | 89 | 1012.3 |
| 20260902232354 | 82 | 57 | 0.9 | 3.5 | 0.00 | 0.04 | 0.04 | 88 | 1012.3 |
| 20260902231353 | 83 | 17 | 0.9 | 4.3 | 0.00 | 0.04 | 0.04 | 88 | 1012.0 |
| 20260902230352 | 83 | 51 | 1.7 | 4.3 | 0.00 | 0.04 | 0.04 | 88 | 1012.0 |
| 20260902225351 | 83 | 43 | 1.7 | 3.5 | 0.00 | 0.04 | 0.04 | 88 | 1012.0 |
| 20260902224350 | 83 | 14 | 0.9 | 5.2 | 0.00 | 0.04 | 0.04 | 88 | 1011.7 |
| 20260902223350 | 83 | 29 | 0.9 | 6.1 | 0.00 | 0.04 | 0.04 | 88 | 1011.7 |
| 20260902222349 | 83 | 52 | 1.7 | 4.3 | 0.00 | 0.04 | 0.04 | 88 | 1011.7 |
| 20260902221348 | 84 | 56 | 1.7 | 6.1 | 0.00 | 0.04 | 0.04 | 86 | 1011.7 |
| 20260902220347 | 84 | 68 | 1.7 | 7.0 | 0.00 | 0.04 | 0.04 | 85 | 1011.7 |
| 20260902215346 | 84 | 36 | 1.7 | 7.0 | 0.00 | 0.04 | 0.04 | 85 | 1011.7 |
| 20260902214346 | 85 | 55 | 1.7 | 7.8 | 0.00 | 0.04 | 0.04 | 83 | 1011.7 |
| 20260902213345 | 86 | 44 | 2.6 | 6.1 | 0.00 | 0.04 | 0.04 | 82 | 1011.7 |
| 20260902212344 | 86 | 53 | 1.7 | 6.1 | 0.00 | 0.04 | 0.04 | 80 | 1011.7 |
| 20260902211312 | 87 | 68 | 2.6 | 6.1 | 0.00 | 0.04 | 0.04 | 79 | 1012.0 |
| 20260902210311 | 87 | 64 | 1.7 | 6.1 | 0.00 | 0.04 | 0.04 | 78 | 1012.0 |
| 20260902205310 | 87 | 19 | 1.7 | 7.0 | 0.00 | 0.04 | 0.04 | 77 | 1011.7 |
| 20260902204309 | 88 | 13 | 2.6 | 7.0 | 0.00 | 0.04 | 0.04 | 77 | 1011.7 |
| 20260902203308 | 89 | 34 | 1.7 | 5.2 | 0.00 | 0.04 | 0.04 | 76 | 1011.7 |
| 20260902202308 | 89 | 50 | 2.6 | 6.1 | 0.00 | 0.04 | 0.04 | 74 | 1011.7 |
| 20260902201307 | 89 | 42 | 0.9 | 7.0 | 0.00 | 0.04 | 0.04 | 74 | 1011.7 |
| 20260902200306 | 89 | 38 | 2.6 | 6.1 | 0.00 | 0.04 | 0.04 | 75 | 1011.7 |
| 20260902195306 | 90 | 66 | 2.6 | 5.2 | 0.00 | 0.04 | 0.04 | 73 | 1011.7 |
| 20260902194304 | 89 | 73 | 1.7 | 6.1 | 0.00 | 0.04 | 0.04 | 73 | 1011.7 |
| 20260902193304 | 89 | 49 | 0.9 | 5.2 | 0.00 | 0.04 | 0.04 | 73 | 1012.0 |
| 20260902192306 | 90 | 23 | 1.7 | 5.2 | 0.00 | 0.04 | 0.04 | 71 | 1012.0 |
| 20260902191302 | 91 | 53 | 0.9 | 6.1 | 0.00 | 0.04 | 0.04 | 69 | 1012.0 |
| 20260902190230 | 92 | 65 | 1.7 | 6.1 | 0.00 | 0.04 | 0.04 | 68 | 1012.0 |
| 20260902185229 | 91 | 35 | 2.6 | 6.1 | 0.00 | 0.04 | 0.04 | 70 | 1012.0 |
| 20260902184228 | 91 | 76 | 1.7 | 6.1 | 0.00 | 0.04 | 0.04 | 71 | 1012.0 |
| 20260902183227 | 90 | 46 | 1.7 | 7.8 | 0.00 | 0.04 | 0.04 | 72 | 1012.3 |
| 20260902182226 | 87 | 42 | 2.6 | 8.7 | 0.00 | 0.04 | 0.04 | 77 | 1012.7 |
| 20260902181225 | 87 | 64 | 2.6 | 6.1 | 0.00 | 0.04 | 0.04 | 78 | 1012.7 |
| 20260902180224 | 88 | 15 | 1.7 | 6.1 | 0.00 | 0.04 | 0.04 | 76 | 1012.7 |
| 20260902175224 | 90 | 37 | 2.6 | 6.1 | 0.00 | 0.04 | 0.04 | 74 | 1012.7 |
| 20260902174152 | 91 | 26 | 1.7 | 7.0 | 0.00 | 0.04 | 0.04 | 73 | 1012.7 |
| 20260902173049 | 91 | 91 | 1.7 | 7.0 | 0.00 | 0.04 | 0.04 | 73 | 1012.7 |
| 20260902172048 | 90 | 25 | 2.6 | 7.0 | 0.01 | 0.04 | 0.04 | 75 | 1013.0 |
| 20260902171047 | 89 | 106 | 1.7 | 6.1 | 0.03 | 0.04 | 0.04 | 77 | 1013.0 |
| 20260902170046 | 88 | 24 | 2.6 | 7.0 | 0.03 | 0.04 | 0.04 | 81 | 1013.4 |
| 20260902165045 | 87 | 7 | 2.6 | 7.0 | 0.03 | 0.04 | 0.04 | 83 | 1013.4 |
| 20260902164044 | 85 | 10 | 0.9 | 7.8 | 0.03 | 0.04 | 0.04 | 93 | 1013.0 |